www.pogodaiklimat.ru

Погода и климат >> Архив погоды >> Мали >> Kenieba


ПОГОДА в Kenieba

  • Прогноз погоды в Kenieba
  • Монитор погоды в Kenieba
  • Климат города

АРХИВ ПОГОДЫ в Kenieba

Время (UTC), дата Ветер
(напр.,м/с)
 
Видим.   Явления Облачность Т
(С)
Тd
(С)
f
(%)
Тe
(С)
Тes
(С)
Комфортность P
(гПа)
Po
(гПа)
Тmin
(С)
Tmax
(С)
R
(мм)
R24
(мм)
S
(см)
00 14.09 штиль 0 10 км {гроза} 6/3 900 м
[Sc diur, vesp Ci sp]
+26.5 +26.5 100 +40 +40 очень
душно
1011.2 996.3
03 14.09 штиль 0 10 км гроза без осадков 8/3 900 м
[Cb cap Ci sp]
+25.5 +25.5 100 +37 +37 очень
душно
1009.7 994.9
06 14.09 ЮВ 6 10 км гроза без осадков 10/6 900 м
[Cb cap Ac As]
+23.0 +20.7 87 +30 +30 очень
душно
1012.8 997.9 +22.9 0.4
09 14.09 ЮЗ 1 10 км в посл. час дождь {гроза} 10/3 900 м
[Sc Ac As]
+24.0 +21.3 85 +30 +32 очень
душно
1012.2 997.2
12 14.09 З 2 10 км {гроза, дождь} 8/0
[Ac As Ci sp]
+30.7 +21.8 59 +39 +51 опасность
солнечного
удара
1011.3 996.4 0.1
15 14.09 СЗ 2 10 км 8/5 900 м
[Sc Ci sp]
+32.8 +24.2 61 +45 +52 опасность
перегрева
1010.1 995.3
18 14.09 В 3 10 км {дождь} 8/4 900 м
[Sc Ac As]
+27.2 +17.9 57 +32 +32 очень
душно
1010.2 995.2 +34.0 0.2
21 14.09 С 2 10 км 10/1 900 м
[Sc Ac As]
+24.8 +22.1 85 +32 +32 очень
душно
1010.3 995.3
00 15.09 штиль 0 10 км 10/3 900 м
[Sc Ac As]
+23.7 +22.7 94 +31 +31 очень
душно
1011.2 996.2
03 15.09 штиль 0 10 км 9/3 900 м
[Sc Ac As]
+23.5 +22.0 91 +30 +30 очень
душно
1010.4 995.5
06 15.09 штиль 0 10 км 10/1 900 м
[Sc Ac As Ci sp]
+22.8 +22.4 98 +31 +31 очень
душно
1011.2 996.1 +22.8 0.2
09 15.09 С 2 10 км 8/1 900 м
[Sc Ac As Ci sp]
+25.4 +22.6 85 +33 +37 очень
душно
1013.0 997.9
12 15.09 штиль 0 10 км 8/1 900 м
[Sc Ci sp]
+30.2 +22.5 63 +39 +60 опасность
солнечного
удара
1012.5 997.5
15 15.09 штиль 0 10 км 6/4 900 м
[Sc Ci sp]
+32.5 +23.2 58 +43 +54 опасность
перегрева
1010.1 995.2
18 15.09 штиль 0 10 км 6/3 900 м
[Sc Ci sp]
+32.1 +24.2 63 +44 +45 опасность
перегрева
1009.8 994.9 +33.8
21 15.09 штиль 0 10 км 6/1 900 м
[Sc Ci sp]
+28.3 +25.6 85 +42 +42 опасность
перегрева
1011.8 996.8
00 16.09 штиль 0 10 км 8/1 900 м
[Sc Ci sp]
+26.8 +25.0 90 +39 +39 очень
душно
1012.7 997.8
03 16.09 штиль 0 10 км 8/1 900 м
[Sc Ci sp]
+25.5 +24.6 95 +36 +36 очень
душно
1011.9 997.0
06 16.09 штиль 0 10 км 8/1 900 м
[Sc Ac As Ci sp]
+24.8 +24.2 96 +34 +34 очень
душно
1012.0 997.1 +24.8
09 16.09 штиль 0 10 км 8/4 900 м
[Sc Ci sp]
+27.6 +24.8 85 +39 +44 очень
душно
1013.0 998.1
12 16.09 С 2 10 км 8/5 900 м
[Cu Sc Ac As Ci sp]
+31.4 +25.1 69 +45 +52 опасность
перегрева
1011.8 996.9
15 16.09 СВ 2 10 км 9/4 900 м
[Sc Ac As Ci sp]
+33.4 +24.4 59 +46 +51 опасность
перегрева
1009.4 994.6
18 16.09 штиль 0 10 км 9/3 900 м
[Sc Ac As]
+31.5 +25.5 71 +46 +47 опасность
перегрева
1008.7 993.8 +33.5
21 16.09 штиль 0 10 км 8/0
[Ac As]
+28.9 +27.0 90 +46 +46 опасность
перегрева
1009.7 994.8
00 17.09 штиль 0 10 км гроза без осадков 8/3 900 м
[Cb cap Ci sp]
+27.3 +26.2 94 +41 +41 опасность
перегрева
1010.9 996.0
03 17.09 З 2 10 км гроза без осадков 10/4 900 м
[Cb cap Ac As]
+26.3 +25.2 94 +38 +38 очень
душно
1008.2 993.4
06 17.09 штиль 0 10 км {гроза} 10/6 900 м
[Sc diur, vesp Ac As]
+25.2 +23.8 92 +34 +34 очень
душно
1009.5 994.6 +25.2
09 17.09 СЗ 1 10 км 10/5 300 м
[Sc Ac As]
+25.8 +24.4 92 +36 +37 очень
душно
1012.0 997.0
12 17.09 СВ 2 10 км 10/5 900 м
[Sc Ci sp]
+29.2 +23.6 72 +40 +48 очень
душно
1011.2 996.3
15 17.09 СЗ 2 10 км 9/5 900 м
[Cu Sc Ci sp]
+32.3 +24.1 62 +44 +50 опасность
перегрева
1008.0 993.2
18 17.09 СВ 1 8000 м гроза, ливневой дождь 10/5 900 м
[Cb cap Ac As]
+24.5 +23.8 96 +33 +33 очень
душно
1008.7 993.7 +32.8 9
21 17.09 штиль 0 10 км гроза без осадков {дождь} 8/5 900 м
[Cb cap Ci sp]
+24.5 +24.1 98 +34 +34 очень
душно
1010.0 995.0
00 18.09 Ю 1 10 км в посл. час гроза {дождь} 9/4 900 м
[Sc diur, vesp Ac cuf Ci sp]
+24.4 +23.8 96 +33 +33 очень
душно
1010.2 995.3 1
03 18.09 штиль 0 10 км 9/4 300 м
[Frnb Ac As Ci sp]
+24.0 +23.7 98 +33 +33 очень
душно
1009.6 994.7
06 18.09 штиль 0 10 км 9/6 300 м
[Frnb Ci sp]
+23.7 +23.7 100 +32 +32 очень
душно
1009.4 994.3 +23.7 10
09 18.09 штиль 0 10 км 5/3 900 м
[Sc Ci sp]
+26.2 +24.3 89 +36 +42 очень
душно
1012.0 996.9
12 18.09 штиль 0 10 км 6/5 900 м
[Cu Sc Ac As Ci sp]
+32.0 +25.0 67 +46 +58 опасность
перегрева
1011.5 996.6
15 18.09 штиль 0 10 км гроза без осадков {дождь} 8/6 900 м
[Cb cap Ac As]
+27.5 +25.8 90 +41 +46 опасность
перегрева
1009.2 994.2
18 18.09 СЗ 2 10 км гроза без осадков {дождь} 10/6 900 м
[Cb cap Ac As]
+28.6 +26.1 86 +43 +43 опасность
перегрева
1009.5 994.5 +32.5 5
21 18.09 штиль 0 10 км гроза без осадков {дождь} 10/8 900 м
[Cb cap Ac As]
+24.4 +23.8 96 +33 +33 очень
душно
1012.0 996.9
06 19.09 штиль 0 10 км {гроза, дождь} 10/6 300 м
[Frnb Ac As]
+23.0 +22.9 99 +32 +32 очень
душно
1010.8 995.8 +22.8 30
09 19.09 штиль 0 10 км 10/9 300 м
[Frnb Ac As]
+24.3 +23.4 95 +33 +33 очень
душно
1013.2 998.1
00 20.09 Ю 2 10 км гроза без осадков 9/4 900 м
[Cb cap Ac As]
+25.5 +23.3 88 +34 +34 очень
душно
1013.4 998.4
03 20.09 штиль 0 10 км {гроза} 9/5 900 м
[Sc diur, vesp Ac As]
+25.0 +23.6 92 +34 +34 очень
душно
1011.5 996.6
06 20.09 штиль 0 10 км {гроза} 8/3 900 м
[Sc Ac As]
+24.5 +23.5 94 +33 +33 очень
душно
1011.5 996.5 +24.5 0.1

 

Местоположение метеостанции Kenieba (Мали): широта 12.85 долгота -11.23 высота над уровнем моря 132 м.

В архиве по умолчанию представлена погода в Kenieba за последнюю неделю. Архивные данные за месяц целиком и за предыдущие месяцы, начиная с января 2011 года, Вы можете получить, выбрав интересующий диапазон дат из раскрывающегося списка и нажав кнопку "Ввод!".


*Определитесь, кто Вы:
робот инопланетянин человек

Внимание! Время в таблицах - всемирное. Для получения местного времени необходимо прибавить поправку, которая в Kenieba равна 0 ч.

Смотрите также архив погоды в соседних городах и на ближайших метеорологических станциях:

Погода в Kedougou (Сенегал) (111 км)
Погода в Kayes (Мали) (177 км)
Погода в Kita (Мали) (192 км)
Погода в Koundara (Гвинея) (249 км)
Погода в Fatoto (Гамбия) (261 км)
Погода в Yelimane (Мали) (263 км)
Погода в Tambacounda (Сенегал) (284 км)
Погода в Basse (Гамбия) (327 км)
Погода в Nioro Du Sahel (Мали) (333 км)
Погода в Bamako (Мали) (358 км)

Пояснения к столбцам:

Ветер - указаны скорость ветра в м/с - средняя за 10 мин, порывы в срок и между сроками (в фигурных скобках) и направление, откуда дует ветер: С - северный, СВ - северо-восточный, В - восточный, ЮВ - юго-восточный, Ю - южный, ЮЗ - юго-западный, З - западный, СЗ - северо-западный.
Видимость - горизонтальная дальность видимости в метрах или километрах. При видимости от 1 до 10 км при отсутствии осадков обычно наблюдается дымка, при ухудшении видимости до 1 км и менее - туман. В сухую погоду видимость может ухудшаться дымом, пылью или мглою.
Явления - указаны атмосферные явления, наблюдавшиеся в срок или в последний час перед сроком; фигурными скобками обозначены явления, наблюдавшиеся между сроками (за 1-3 часа до срока); квадратными скобками обозначены град или гололедные отложения с указанием их диаметра в мм.
Облачность - указаны через наклонную черту общая и нижняя облачность в баллах и высота нижней границы облаков в метрах; квадратными скобками обозначены формы облаков: Ci - перистые, Cs - перисто-слоистые, Cc - перисто-кучевые, Ac - высококучевые, As - высокослоистые, Sc - слоисто-кучевые, Ns - слоисто-дождевые, Cu - кучевые, Cb - кучево-дождевые. Подробнее классификацию облаков см. в Атласе облаков (PDF).
T - Температура воздуха - температура, измеренная на высоте 2 м над землей.
Td - Температура точки росы - температура, при понижении до которой содержащийся в воздухе водяной пар достигнет насыщения.
f - Относительная влажность воздуха - влажноcть воздуха, измеренная на высоте 2 м над землей.
Te - Эффективная температура - температура, которую ощущает одетый по сезону человек в тени. Характеристика душности погоды. При расчете учитывается влияние влажности воздуха и скорости ветра на теплоощущения человека.
Tes - Эффективная температура на солнце - температура, которую ощущает человек, с поправкой на солнечный нагрев. Характеристика знойности погоды. Зависит от высоты солнца над горизонтом, облачности и скорости ветра. Ночью, в пасмурную погоду, а также при ветре 12 м/с и более поправка равна нулю.
P - Атмосферное давление - приведенное к уровню моря атмосферное давление.
Po - Атмосферное давление - измеренное на уровне метеостанции атмосферное давление.
Tmin - Минимальная температура - минимум температуры воздуха на высоте 2 м над землей.
Tmax - Максимальная температура - максимум температуры воздуха на высоте 2 м над землей.
R - Количество осадков - Количество выпавших осадков за период времени, мм. При наведении курсора мыши на число - период времени, за который выпало указанное количество осадков.
R24 - Количество осадков - Количество выпавших осадков за 24 часа, мм.
S - Снежный покров - Высота снежного покрова, см. При наведении курсора мыши на число - состояние снежного покрова и степень покрытия местности в баллах.